Powrót do katalogu

CEVROSAT

AktywnyKrótkofalarstwoVLEO
NORAD 66304·PAYLOAD·🇨🇿 Czechia
Ta nazwa satelity nie została jeszcze potwierdzona przez oficjalne źródła.

Wystrzelony Nov 2, 2025 z Cape Canaveral Space Force Station

Loading…

Następne Przeloty (najbliższe 24 godziny)

TLE

ŚwieżeSource: Space-Track

Epoka: Sep 14, 2026, 07:18 UTC

1 66304U 25248M   26257.30437579  .00013083  00000-0  44672-3 0  9991
2 66304  45.4207 349.5457 0008744 226.7829 133.2332 15.30340202 46972

Śledź CEVROSAT w czasie rzeczywistym z AllMySat

Download on the App Store